sat.trackr.live / text

‹ back to catalog

STARLINK-34064

NORAD 64114 · 2025-110U

PAYLOAD ACTIVE UNKNOWN

§ Identity

Operator
Country
US
Launch date
2025-05-23
Launch site
AFWTR
Launch vehicle
Mass (kg)
RCS (m²)

Purposes: comms

External: N2YO · Heavens-Above · Gunter

§ Orbital elements

Epoch: 2026-05-24T23:35:08.467296Z

Period
94.02 min
Inclination
53.1588°
Eccentricity
0.0001294
Mean motion
15.31656847 rev/d
Perigee alt
470.0 km
Apogee alt
471.8 km
Semi-major
6,849.0 km
B*
-6.8878e-4
RAAN
32.3638°
Arg perigee
80.3811°
Mean anomaly
279.7337°
Rev number
5,756

§ Raw data

STARLINK-340641 64114U 25110U   26144.98273689 -.00021648  00000+0 -68878-3 0  99962 64114  53.1588  32.3638 0001294  80.3811 279.7337 15.31656847 57567

JSON: /api/v1/satellites/64114 · /tle

For live sub-satellite position, see the globe view (requires WebGL).

§ Visibility from observer

Set your observer location to see the next 7 days of passes ≥ 10°. The values pass through the URL so the page stays shareable.

No JS? Fill the form by hand. The geolocation button needs JavaScript.